Borger, TX

8:28 AM CST on February 25, 2017 (GMT -0600)
Hutchinson County

Weather History for KBGD - July, 2013

Change the Weather History Date:

Sunday, July 28, 2013

  Actual Average Record
Temperature  
Mean Temperature 82 °F 82 °F  
Max Temperature 94 °F 94 °F 105 °F (1986)
Min Temperature 69 °F 70 °F 57 °F (1994)
Degree Days  
Heating Degree Days 0 0  
Month to date heating degree days 0 0  
Since 1 June heating degree days 0 3  
Since 1 July heating degree days 0 0  
Cooling Degree Days 17 17  
Month to date cooling degree days 454 471  
Year to date cooling degree days 1235 1026  
Since 1 June cooling degree days 947 829  
Growing Degree Days 32 (Base 50)    
Moisture  
Dew Point 53 °F    
Average Humidity 43    
Maximum Humidity 57    
Minimum Humidity 28    
Precipitation  
Precipitation 0.00 in 0.10 in 2.08 in (1950)
Month to date precipitation 1.91 2.21  
Year to date precipitation 8.55 12.43  
Snow  
Snow 0.00 in - T in (1950)
Month to date snowfall 0.0  
Since 1 June snowfall 0.0  
Since 1 July snowfall 0.0  
Snow Depth 0.00 in    
Sea Level Pressure  
Sea Level Pressure 29.83 in    
Wind  
Wind Speed 14 mph (South)    
Max Wind Speed 25 mph    
Max Gust Speed 33 mph    
Visibility 10 miles    
Events Thunderstorm    
T = Trace of Precipitation, MM = Missing Value Source: NWS Daily Summary

Daily Weather History Graph

Daily Weather History Graph

Search for Another Location

Airport or City:

Trip Planner

Search our weather history database for the weather conditions in past years. The results will help you decide how hot, cold, wet, or windy it might be!

Date:

Astronomy

Jul. 28, 2013 Rise Set
Actual Time 6:50 AM CDT 8:52 PM CDT
Civil Twilight 6:22 AM CDT 9:21 PM CDT
Nautical Twilight 5:47 AM CDT 9:55 PM CDT
Astronomical Twilight 5:10 AM CDT 10:32 PM CDT
Moon No Moon Rise 1:19 PM CDT (7/28)
Length of Visible Light 14h 58m
Length of Day
14h 02m
Waning Gibbous, 60% of the Moon is Illuminated
Jul 28
Waning Gibbous
Jul 29
Last Quarter
Aug 6
New
Aug 14
First Quarter
Aug 20
Full

Hourly Weather History & Observations

Time (CDT) Temp. Heat Index Dew Point Humidity Pressure Visibility Wind Dir Wind Speed Gust Speed Precip Events Conditions
12:51 AM 77.0 °F - 48.0 °F 36% 29.85 in 10.0 mi South 21.9 mph 27.6 mph N/A   Clear
1:51 AM 73.9 °F - 52.0 °F 46% 29.86 in 10.0 mi South 18.4 mph 26.5 mph N/A   Clear
2:51 AM 73.0 °F - 51.1 °F 46% 29.84 in 10.0 mi South 15.0 mph 24.2 mph N/A   Scattered Clouds
3:51 AM 73.0 °F - 52.0 °F 48% 29.84 in 10.0 mi South 11.5 mph 25.3 mph N/A   Clear
4:51 AM 73.0 °F - 52.0 °F 48% 29.85 in 10.0 mi SSW 6.9 mph - N/A Thunderstorm Mostly Cloudy
5:12 AM 71.6 °F - 53.6 °F 53% 30.00 in 10.0 mi South 9.2 mph - N/A   Mostly Cloudy
5:51 AM 71.1 °F - 53.1 °F 53% 29.85 in 10.0 mi SSE 5.8 mph - N/A   Partly Cloudy
6:51 AM 70.0 °F - 53.1 °F 55% 29.86 in 10.0 mi South 8.1 mph - N/A   Clear
7:51 AM 71.1 °F - 54.0 °F 55% 29.86 in 10.0 mi South 8.1 mph - N/A   Clear
8:51 AM 75.0 °F - 54.0 °F 48% 29.86 in 10.0 mi Variable 6.9 mph 17.3 mph N/A   Clear
9:51 AM 79.0 °F - 54.0 °F 42% 29.86 in 10.0 mi SSW 12.7 mph 24.2 mph N/A   Clear
10:51 AM 82.9 °F 81.9 °F 54.0 °F 37% 29.84 in 10.0 mi South 17.3 mph 26.5 mph N/A   Clear
11:51 AM 86.0 °F 84.5 °F 55.0 °F 35% 29.84 in 10.0 mi South 16.1 mph 25.3 mph N/A   Clear
12:51 PM 88.0 °F 86.1 °F 55.0 °F 32% 29.83 in 10.0 mi SSW 17.3 mph 25.3 mph N/A   Clear
1:51 PM 91.0 °F 88.7 °F 54.0 °F 28% 29.81 in 10.0 mi South 16.1 mph 23.0 mph N/A   Clear
2:51 PM 93.0 °F 91.1 °F 55.0 °F 28% 29.79 in 10.0 mi South 11.5 mph 24.2 mph N/A   Clear
3:51 PM 93.0 °F 91.1 °F 55.0 °F 28% 29.76 in 10.0 mi South 19.6 mph 27.6 mph N/A   Clear
4:51 PM 91.9 °F 90.0 °F 55.0 °F 29% 29.74 in 10.0 mi SSE 18.4 mph 32.2 mph N/A   Clear
5:51 PM 91.0 °F 88.7 °F 54.0 °F 28% 29.75 in 10.0 mi SSE 17.3 mph 25.3 mph N/A   Clear
6:51 PM 88.0 °F 85.9 °F 54.0 °F 31% 29.77 in 10.0 mi SSE 16.1 mph 21.9 mph N/A   Clear
7:51 PM 86.0 °F - 52.0 °F 31% 29.78 in 10.0 mi SE 13.8 mph 23.0 mph N/A   Clear
8:51 PM 84.0 °F - 52.0 °F 33% 29.79 in 10.0 mi SE 16.1 mph 25.3 mph N/A   Clear
9:51 PM 82.0 °F 81.2 °F 53.1 °F 37% 29.79 in 10.0 mi SE 15.0 mph 25.3 mph N/A   Clear
10:51 PM 79.0 °F - 53.1 °F 40% 29.82 in 10.0 mi SE 17.3 mph 27.6 mph N/A   Clear
11:51 PM 78.1 °F - 55.9 °F 46% 29.81 in 10.0 mi SSE 13.8 mph 28.8 mph N/A   Clear